Temp
8 8 8 7 8 8 8 7 6 6 5 5 5 4 4 4 4 4 4 4 3 3 3 3 2 2 2 2 1 1 1 1
8 7 7 7 7 7 7 7 6 5 4 4 4 4 3 3 3 3 3 3 3 3 2 2 2 2 2 1 1 0 0 0
8 8 8 8 7 7 7 6 6 5 4 4 4 3 3 3 3 3 3 3 2 2 2 1 1 1 1 0 0 -1 -1 -1
8 8 8 8 7 7 7 6 5 4 4 3 3 3 3 2 2 2 2 2 1 1 1 1 0 0 -0 -0 -0 -1 -1 -1
8 8 8 8 7 7 6 5 4 4 2 3 2 1 1 1 1 1 1 1 0 0 0 -0 -0 -0 -1 -1 -1 -2 -2 -2
7 7 7 7 7 6 5 3 2 2 -0 1 0 -1 -0 0 0 0 0 -0 -0 -0 -1 -1 -1 -1 -1 -1 -1 -2 -2 -3
6 7 7 6 6 4 3 2 1 -0 -2 -1 -1 -0 -1 -1 -1 -1 -1 -1 -1 -1 -1 -1 -1 -1 -1 -2 -2 -2 -3 -3
5 6 6 4 2 3 1 -0 -1 -2 -2 0 0 -2 -2 -2 -1 -1 -1 -2 -2 -2 -2 -2 -2 -2 -2 -2 -3 -3 -3 -3
4 3 3 2 1 1 -1 -2 -3 -3 -2 0 0 -2 -2 -2 -2 -2 -2 -2 -2 -2 -2 -2 -2 -2 -2 -2 -3 -3 -3 -3
1 0 0 -0 -1 -2 -3 -3 -3 -2 -2 -1 0 -1 -1 -2 -2 -3 -3 -3 -3 -3 -2 -3 -2 -3 -3 -3 -4 -4 -4 -4
0 -1 -1 -2 -2 -1 -1 -0 -1 -2 -3 -3 -2 -1 -2 -2 -3 -3 -3 -3 -3 -3 -3 -3 -3 -3 -3 -4 -4 -4 -5 -5
-1 -1 -1 -1 -1 -1 -1 -1 -1 -2 -1 -3 -4 -4 -3 -3 -3 -3 -4 -4 -4 -3 -4 -4 -3 -4 -4 -4 -5 -5 -5 -5
-2 -2 -1 -1 -1 -2 -2 -2 -2 -2 -3 -2 -2 -2 -2 -3 -3 -4 -4 -4 -4 -4 -4 -4 -4 -4 -4 -5 -5 -5 -5 -6
-3 -2 -2 -2 -2 -2 -3 -3 -3 -3 -3 -3 -3 -3 -3 -3 -4 -4 -4 -5 -5 -4 -4 -5 -4 -5 -5 -5 -6 -6 -6 -6
-3 -3 -2 -2 -2 -3 -3 -3 -3 -4 -3 -3 -4 -5 -4 -4 -5 -5 -5 -5 -5 -5 -5 -5 -5 -5 -6 -6 -6 -6 -6 -6
-3 -3 -2 -2 -2 -3 -3 -3 -3 -4 -4 -4 -4 -5 -5 -5 -5 -5 -5 -5 -5 -5 -5 -5 -6 -6 -7 -7 -7 -7 -7 -7
-3 -3 -2 -2 -2 -3 -4 -4 -3 -4 -4 -5 -5 -5 -6 -6 -6 -6 -6 -5 -6 -6 -6 -6 -6 -6 -6 -8 -7 -7 -8 -8
-3 -3 -3 -2 -3 -3 -4 -4 -4 -4 -4 -4 -5 -5 -5 -6 -6 -6 -5 -6 -6 -6 -6 -7 -6 -6 -7 -8 -8 -8 -8 -8
-4 -3 -3 -3 -3 -4 -6 -5 -4 -4 -5 -5 -5 -6 -6 -6 -6 -6 -6 -6 -6 -6 -7 -7 -6 -7 -7 -9 -8 -8 -8 -9
Height
3084 3085 3086 3088 3087 3088 3087 3087 3087 3087 3087 3087 3088 3089 3089 3089 3090 3091 3092 3093 3094 3095 3096 3096 3097 3097 3097 3097 3097 3095 3093 3091
3078 3078 3080 3079 3077 3078 3080 3081 3081 3080 3080 3080 3081 3082 3083 3083 3083 3085 3086 3087 3089 3090 3091 3092 3092 3092 3092 3092 3091 3090 3088 3086
3068 3068 3067 3066 3067 3067 3070 3074 3074 3074 3074 3074 3074 3075 3076 3078 3079 3080 3081 3082 3083 3085 3086 3086 3087 3086 3086 3087 3086 3085 3083 3082
3059 3058 3059 3060 3059 3060 3061 3065 3068 3067 3068 3069 3068 3069 3070 3073 3073 3073 3074 3076 3078 3080 3081 3082 3082 3082 3082 3082 3082 3081 3079 3077
3054 3053 3053 3053 3053 3054 3056 3057 3058 3059 3060 3062 3062 3064 3065 3068 3067 3069 3069 3071 3073 3074 3075 3076 3077 3078 3077 3077 3077 3076 3076 3073
3050 3046 3045 3044 3043 3046 3047 3048 3048 3049 3049 3054 3055 3056 3059 3060 3062 3063 3065 3066 3068 3069 3070 3071 3073 3074 3073 3072 3071 3070 3069 3067
3044 3042 3041 3039 3038 3041 3041 3042 3041 3038 3036 3044 3046 3048 3053 3055 3056 3059 3059 3060 3062 3065 3066 3067 3068 3068 3068 3067 3065 3064 3063 3061
3038 3036 3035 3035 3039 3041 3037 3034 3025 3033 3031 3033 3040 3045 3047 3050 3052 3052 3053 3054 3058 3061 3061 3062 3063 3063 3062 3061 3059 3057 3056 3054
3032 3030 3029 3030 3034 3036 3021 3025 3030 3028 3031 3033 3036 3040 3042 3044 3046 3047 3050 3049 3051 3055 3056 3056 3058 3058 3057 3056 3054 3053 3050 3048
3030 3028 3028 3029 3029 3027 3026 3025 3027 3028 3033 3033 3035 3034 3036 3038 3040 3044 3044 3046 3047 3050 3051 3052 3053 3053 3052 3051 3049 3048 3045 3044
3031 3029 3030 3028 3028 3027 3026 3024 3025 3028 3029 3030 3030 3030 3029 3031 3033 3036 3039 3040 3043 3045 3046 3047 3048 3048 3047 3046 3044 3043 3042 3041
3029 3028 3026 3023 3023 3022 3023 3023 3022 3024 3023 3023 3023 3023 3022 3024 3028 3030 3036 3036 3036 3038 3040 3041 3042 3043 3042 3041 3039 3039 3040 3040
3026 3024 3023 3022 3019 3019 3018 3018 3019 3019 3019 3019 3022 3023 3021 3020 3023 3025 3028 3031 3032 3033 3034 3036 3037 3037 3037 3037 3036 3036 3037 3037
3018 3019 3018 3017 3015 3014 3014 3013 3014 3014 3014 3014 3016 3016 3017 3016 3016 3018 3022 3023 3024 3026 3027 3029 3030 3031 3031 3032 3032 3032 3033 3034
3010 3009 3009 3006 3007 3006 3005 3003 3004 3006 3006 3008 3009 3009 3010 3008 3008 3011 3013 3013 3015 3016 3019 3021 3023 3024 3025 3026 3026 3027 3029 3030
3004 3003 3002 3001 2999 2999 2996 2994 2995 2996 2998 3000 3001 3000 3002 3000 3000 3002 3005 3007 3006 3009 3011 3015 3016 3017 3018 3019 3021 3022 3024 3026
2997 2995 2993 2991 2988 2985 2983 2984 2985 2987 2988 2991 2992 2993 2994 2994 2994 2996 2998 2998 2999 3001 3005 3006 3007 3011 3012 3012 3016 3016 3019 3022
2987 2985 2981 2979 2975 2972 2970 2973 2975 2976 2978 2981 2983 2985 2984 2986 2987 2988 2989 2991 2992 2995 2997 2997 3001 3004 3005 3007 3011 3011 3014 3017
2978 2976 2973 2970 2966 2962 2961 2962 2964 2965 2969 2973 2975 2977 2978 2978 2979 2982 2983 2985 2986 2989 2988 2991 2995 2996 2998 3001 3004 3006 3009 3012
Wind_Speed
32 31 29 28 32 27 28 28 19 16 18 19 22 24 25 25 25 23 21 21 21 20 20 21 20 20 20 20 21 21 21 23
34 34 34 34 36 34 31 30 21 20 19 19 19 22 24 26 26 23 22 22 22 21 19 20 19 18 22 22 20 19 21 22
44 45 43 40 39 38 36 32 24 22 22 21 19 22 25 26 25 24 23 22 21 20 20 19 20 21 22 20 19 19 20 23
47 48 45 39 40 41 41 36 27 24 23 24 19 20 22 24 24 24 23 22 21 19 18 19 21 21 20 20 20 19 20 22
37 44 46 41 40 41 44 42 34 28 21 21 21 19 21 24 23 23 22 20 19 17 20 20 19 19 19 19 20 21 21 23
26 26 34 39 44 47 49 46 40 31 18 20 23 19 23 21 20 21 20 19 17 17 17 17 16 16 19 21 24 25 25 25
31 29 31 34 40 50 51 45 35 24 9 20 18 18 18 17 19 19 18 16 15 16 14 13 14 17 20 23 24 24 24 24
28 27 29 25 36 48 44 28 9 15 17 11 14 18 17 19 19 18 16 14 15 14 12 11 16 18 21 23 23 22 23 22
23 18 15 20 31 39 10 8 12 13 14 12 16 18 18 18 17 18 17 16 18 17 12 14 17 19 21 21 20 21 21 19
20 11 6 15 11 11 25 30 24 18 24 18 18 17 19 17 18 19 19 20 23 15 14 15 19 20 21 20 20 20 18 16
27 25 25 22 22 24 27 29 31 32 24 22 21 21 19 21 20 20 21 25 21 19 18 20 20 21 20 20 18 17 15 13
20 21 22 21 20 22 20 20 21 22 23 22 15 15 18 20 21 22 24 25 22 20 22 21 21 21 20 19 18 16 13 13
25 23 20 20 22 22 22 21 19 20 20 19 22 28 21 17 22 24 26 27 25 24 22 21 21 21 20 19 18 17 14 15
19 23 23 26 28 26 24 21 21 21 22 20 25 29 31 27 23 24 26 27 28 25 23 20 22 22 21 19 18 17 16 16
26 26 25 28 30 31 30 29 27 28 26 25 22 23 29 32 29 28 31 30 30 28 24 22 26 25 23 19 18 17 17 17
19 18 21 25 28 31 33 33 33 33 34 31 27 24 24 23 27 30 33 35 33 28 22 26 27 27 25 20 18 17 18 18
24 26 30 33 33 34 36 36 35 33 34 34 30 21 24 24 24 26 27 31 25 23 28 26 28 28 27 18 21 19 20 20
30 30 34 34 33 36 36 31 32 34 30 33 30 27 23 24 24 26 29 27 29 27 28 26 28 30 27 20 23 20 21 23
26 29 31 30 22 20 19 22 27 27 26 27 21 23 24 25 22 26 27 28 29 32 27 28 33 28 27 25 24 22 23 24
Wind_Direction
276 276 276 278 280 277 281 278 279 293 281 274 264 258 258 259 259 258 257 257 258 263 268 269 273 283 289 290 287 284 283 282
274 272 275 275 267 268 275 274 272 283 293 284 269 261 259 259 259 259 259 260 263 267 266 270 278 288 290 288 286 284 283 282
272 273 276 273 269 269 266 268 260 272 279 280 270 258 256 260 261 262 260 259 259 258 260 268 279 285 290 290 287 279 276 277
267 268 273 278 275 271 266 262 253 257 264 275 265 268 260 258 256 256 255 253 254 258 265 281 288 289 288 288 286 281 277 279
275 273 276 280 273 268 265 257 248 251 255 274 262 258 253 248 252 258 257 254 257 260 279 281 281 284 286 290 290 287 283 279
283 283 275 274 268 261 250 244 243 248 242 264 261 249 250 254 258 257 258 257 255 266 272 280 286 291 294 294 293 291 287 281
294 292 296 289 272 246 240 236 236 237 254 271 266 256 254 255 257 254 249 250 259 265 269 272 282 288 291 294 290 286 283 279
285 278 277 290 261 235 231 231 272 290 276 269 268 257 252 250 247 247 243 245 250 247 251 287 288 290 297 298 291 285 284 287
271 270 274 262 243 238 290 331 331 318 303 264 255 258 249 241 239 240 235 234 235 241 250 262 276 288 292 295 291 288 287 289
311 325 316 251 267 287 309 313 313 310 306 310 278 258 247 241 239 233 229 230 238 257 238 260 269 281 286 289 287 287 293 287
299 296 292 298 311 313 311 318 314 285 267 273 266 254 248 246 242 237 230 234 245 232 242 255 267 279 282 285 287 292 287 268
303 307 307 303 302 312 308 310 305 304 302 263 280 285 267 251 247 237 237 237 245 243 249 255 267 275 280 285 288 284 268 242
287 294 290 290 293 297 291 297 304 305 291 273 265 248 247 254 247 240 236 241 249 247 254 257 266 275 276 279 276 271 249 228
268 278 285 281 278 279 279 271 279 281 283 264 261 260 261 247 240 248 245 244 243 250 251 254 263 268 268 268 266 261 245 229
273 273 273 275 271 271 272 275 276 270 273 264 263 268 264 264 249 243 245 244 242 240 239 250 259 258 257 255 255 253 243 233
264 263 270 272 270 270 270 267 272 271 269 263 265 261 271 264 256 258 254 259 241 239 244 251 255 256 250 244 244 243 239 232
267 272 275 283 289 276 263 264 264 267 263 260 267 260 253 260 262 253 255 256 246 248 252 249 255 260 256 228 237 233 233 230
282 293 296 299 295 284 264 256 259 261 266 249 247 253 252 249 258 261 253 262 247 256 253 254 261 261 244 220 233 229 230 228
300 300 301 299 295 290 270 259 261 257 245 250 254 252 254 262 261 253 254 249 256 253 254 258 258 250 233 215 229 228 229 228